owner,sensor,date,latitude,longitude,vertical_datum,wind_speed,wind_to_direction,wind_speed_of_gust,qcFlag 
TCOON,ioos:station:TCOON:518:1,2011-10-01T00:00:00Z,29.5150,-94.5133,0.0,4.4,13.0,5.1,'11111222,11111222,11111222' 
TCOON,ioos:station:TCOON:518:1,2011-10-01T01:00:00Z,29.5150,-94.5133,0.0,3.7,70.0,4.2,'11111222,11111222,11111222' 
TCOON,ioos:station:TCOON:518:1,2011-10-01T02:00:00Z,29.5150,-94.5133,0.0,4.4,67.0,4.8,'11111222,11111222,11111222' 
TCOON,ioos:station:TCOON:518:1,2011-10-01T03:00:00Z,29.5150,-94.5133,0.0,6.1,61.0,7.2,'11111222,11111222,11111222' 
TCOON,ioos:station:TCOON:518:1,2011-10-01T04:00:00Z,29.5150,-94.5133,0.0,6.2,58.0,7.2,'11111222,11111222,11111222' 
TCOON,ioos:station:TCOON:518:1,2011-10-01T05:00:00Z,29.5150,-94.5133,0.0,6.1,58.0,7.2,'11111222,11111222,11111222' 
TCOON,ioos:station:TCOON:518:1,2011-10-01T06:00:00Z,29.5150,-94.5133,0.0,7.1,61.0,8.2,'11111222,11111222,11111222' 
TCOON,ioos:station:TCOON:518:1,2011-10-01T07:00:00Z,29.5150,-94.5133,0.0,7.6,58.0,8.6,'11111222,11111222,11111222' 
TCOON,ioos:station:TCOON:518:1,2011-10-01T08:00:00Z,29.5150,-94.5133,0.0,8.5,56.0,9.5,'11111222,11111222,11111222' 
TCOON,ioos:station:TCOON:518:1,2011-10-01T09:00:00Z,29.5150,-94.5133,0.0,6.9,59.0,8.6,'11111222,11111222,11111222' 
TCOON,ioos:station:TCOON:518:1,2011-10-01T10:00:00Z,29.5150,-94.5133,0.0,6.8,48.0,8.8,'11111222,11111222,11111222' 
TCOON,ioos:station:TCOON:518:1,2011-10-01T11:00:00Z,29.5150,-94.5133,0.0,6.0,47.0,7.7,'11111222,11111222,11111222' 
TCOON,ioos:station:TCOON:518:1,2011-10-01T12:00:00Z,29.5150,-94.5133,0.0,5.6,35.0,6.2,'11111222,11111222,11111222' 
TCOON,ioos:station:TCOON:518:1,2011-10-01T13:00:00Z,29.5150,-94.5133,0.0,6.0,46.0,7.6,'11111222,11111222,11111222' 
TCOON,ioos:station:TCOON:518:1,2011-10-01T14:00:00Z,29.5150,-94.5133,0.0,6.6,51.0,7.5,'11111222,11111222,11111222' 
TCOON,ioos:station:TCOON:518:1,2011-10-01T15:00:00Z,29.5150,-94.5133,0.0,7.1,54.0,8.4,'11111222,11111222,11111222' 
TCOON,ioos:station:TCOON:518:1,2011-10-01T16:00:00Z,29.5150,-94.5133,0.0,9.1,81.0,11.4,'11111222,11111222,11111222' 
TCOON,ioos:station:TCOON:518:1,2011-10-01T17:00:00Z,29.5150,-94.5133,0.0,7.6,88.0,10.2,'11111222,11111222,11111222' 
TCOON,ioos:station:TCOON:518:1,2011-10-01T18:00:00Z,29.5150,-94.5133,0.0,7.9,102.0,9.4,'11111222,11111222,11111222' 
TCOON,ioos:station:TCOON:518:1,2011-10-01T19:00:00Z,29.5150,-94.5133,0.0,6.8,98.0,8.8,'11111222,11111222,11111222' 
TCOON,ioos:station:TCOON:518:1,2011-10-01T20:00:00Z,29.5150,-94.5133,0.0,7.1,99.0,8.3,'11111222,11111222,11111222' 
TCOON,ioos:station:TCOON:518:1,2011-10-01T21:00:00Z,29.5150,-94.5133,0.0,6.4,116.0,7.4,'11111222,11111222,11111222' 
TCOON,ioos:station:TCOON:518:1,2011-10-01T22:00:00Z,29.5150,-94.5133,0.0,4.5,122.0,6.7,'11111222,11111222,11111222' 
TCOON,ioos:station:TCOON:518:1,2011-10-01T23:00:00Z,29.5150,-94.5133,0.0,3.8,130.0,5.0,'11111222,11111222,11111222' 
TCOON,ioos:station:TCOON:518:1,2011-10-02T00:00:00Z,29.5150,-94.5133,0.0,3.6,128.0,4.2,'11111222,11111222,11111222' 
TCOON,ioos:station:TCOON:518:1,2011-10-02T01:00:00Z,29.5150,-94.5133,0.0,1.1,179.0,1.6,'11111222,11111222,11111222' 
TCOON,ioos:station:TCOON:518:1,2011-10-02T02:00:00Z,29.5150,-94.5133,0.0,1.4,126.0,1.8,'11111222,11111222,11111222' 
TCOON,ioos:station:TCOON:518:1,2011-10-02T03:00:00Z,29.5150,-94.5133,0.0,1.0,81.0,1.5,'11111222,11111222,11111222' 
TCOON,ioos:station:TCOON:518:1,2011-10-02T04:00:00Z,29.5150,-94.5133,0.0,2.0,346.0,2.8,'11111222,11111222,11111222' 
TCOON,ioos:station:TCOON:518:1,2011-10-02T05:00:00Z,29.5150,-94.5133,0.0,2.6,22.0,2.8,'11111222,11111222,11111222' 
TCOON,ioos:station:TCOON:518:1,2011-10-02T06:00:00Z,29.5150,-94.5133,0.0,2.5,30.0,2.7,'11111222,11111222,11111222' 
TCOON,ioos:station:TCOON:518:1,2011-10-02T07:00:00Z,29.5150,-94.5133,0.0,4.7,42.0,5.6,'11111222,11111222,11111222' 
TCOON,ioos:station:TCOON:518:1,2011-10-02T08:00:00Z,29.5150,-94.5133,0.0,4.3,33.0,5.0,'11111222,11111222,11111222' 
TCOON,ioos:station:TCOON:518:1,2011-10-02T09:00:00Z,29.5150,-94.5133,0.0,6.6,37.0,7.6,'11111222,11111222,11111222' 
TCOON,ioos:station:TCOON:518:1,2011-10-02T10:00:00Z,29.5150,-94.5133,0.0,7.1,42.0,8.1,'11111222,11111222,11111222' 
TCOON,ioos:station:TCOON:518:1,2011-10-02T11:00:00Z,29.5150,-94.5133,0.0,7.2,51.0,8.3,'11111222,11111222,11111222' 
TCOON,ioos:station:TCOON:518:1,2011-10-02T12:00:00Z,29.5150,-94.5133,0.0,7.3,50.0,8.2,'11111222,11111222,11111222' 
TCOON,ioos:station:TCOON:518:1,2011-10-02T13:00:00Z,29.5150,-94.5133,0.0,6.7,51.0,8.0,'11111222,11111222,11111222' 
TCOON,ioos:station:TCOON:518:1,2011-10-02T14:00:00Z,29.5150,-94.5133,0.0,6.8,55.0,7.8,'11111222,11111222,11111222' 
TCOON,ioos:station:TCOON:518:1,2011-10-02T15:00:00Z,29.5150,-94.5133,0.0,6.8,61.0,7.7,'11111222,11111222,11111222' 
TCOON,ioos:station:TCOON:518:1,2011-10-02T16:00:00Z,29.5150,-94.5133,0.0,5.6,53.0,7.9,'11111222,11111222,11111222' 
TCOON,ioos:station:TCOON:518:1,2011-10-02T17:00:00Z,29.5150,-94.5133,0.0,5.1,95.0,6.9,'11111222,11111222,11111222' 
TCOON,ioos:station:TCOON:518:1,2011-10-02T18:00:00Z,29.5150,-94.5133,0.0,3.4,96.0,4.7,'11111222,11111222,11111222' 
TCOON,ioos:station:TCOON:518:1,2011-10-02T19:00:00Z,29.5150,-94.5133,0.0,6.3,118.0,8.4,'11111222,11111222,11111222' 
TCOON,ioos:station:TCOON:518:1,2011-10-02T20:00:00Z,29.5150,-94.5133,0.0,6.3,114.0,7.7,'11111222,11111222,11111222' 
TCOON,ioos:station:TCOON:518:1,2011-10-02T21:00:00Z,29.5150,-94.5133,0.0,5.8,107.0,7.3,'11111222,11111222,11111222' 
TCOON,ioos:station:TCOON:518:1,2011-10-02T22:00:00Z,29.5150,-94.5133,0.0,6.5,118.0,7.8,'11111222,11111222,11111222' 
TCOON,ioos:station:TCOON:518:1,2011-10-02T23:00:00Z,29.5150,-94.5133,0.0,6.0,122.0,7.1,'11111222,11111222,11111222' 
TCOON,ioos:station:TCOON:518:1,2011-10-03T00:00:00Z,29.5150,-94.5133,0.0,5.7,113.0,6.6,'11111222,11111222,11111222' 
TCOON,ioos:station:TCOON:518:1,2011-10-03T01:00:00Z,29.5150,-94.5133,0.0,4.6,125.0,5.4,'11111222,11111222,11111222' 
TCOON,ioos:station:TCOON:518:1,2011-10-03T02:00:00Z,29.5150,-94.5133,0.0,4.3,121.0,5.7,'11111222,11111222,11111222' 
TCOON,ioos:station:TCOON:518:1,2011-10-03T03:00:00Z,29.5150,-94.5133,0.0,3.8,105.0,4.9,'11111222,11111222,11111222' 
TCOON,ioos:station:TCOON:518:1,2011-10-03T04:00:00Z,29.5150,-94.5133,0.0,3.4,55.0,4.1,'11111222,11111222,11111222' 
TCOON,ioos:station:TCOON:518:1,2011-10-03T05:00:00Z,29.5150,-94.5133,0.0,3.9,49.0,4.5,'11111222,11111222,11111222' 
TCOON,ioos:station:TCOON:518:1,2011-10-03T06:00:00Z,29.5150,-94.5133,0.0,3.9,49.0,4.9,'11111222,11111222,11111222' 
TCOON,ioos:station:TCOON:518:1,2011-10-03T07:00:00Z,29.5150,-94.5133,0.0,5.3,73.0,6.0,'11111222,11111222,11111222' 
TCOON,ioos:station:TCOON:518:1,2011-10-03T08:00:00Z,29.5150,-94.5133,0.0,4.6,49.0,5.1,'11111222,11111222,11111222' 
TCOON,ioos:station:TCOON:518:1,2011-10-03T09:00:00Z,29.5150,-94.5133,0.0,5.3,53.0,6.2,'11111222,11111222,11111222' 
TCOON,ioos:station:TCOON:518:1,2011-10-03T10:00:00Z,29.5150,-94.5133,0.0,5.8,55.0,6.5,'11111222,11111222,11111222' 
TCOON,ioos:station:TCOON:518:1,2011-10-03T12:00:00Z,29.5150,-94.5133,0.0,5.7,47.0,7.1,'11111222,11111222,11111222' 
TCOON,ioos:station:TCOON:518:1,2011-10-03T13:00:00Z,29.5150,-94.5133,0.0,5.5,41.0,6.3,'11111222,11111222,11111222' 
TCOON,ioos:station:TCOON:518:1,2011-10-03T14:00:00Z,29.5150,-94.5133,0.0,5.4,40.0,6.5,'11111222,11111222,11111222' 
TCOON,ioos:station:TCOON:518:1,2011-10-03T15:00:00Z,29.5150,-94.5133,0.0,4.7,41.0,5.6,'11111222,11111222,11111222' 
TCOON,ioos:station:TCOON:518:1,2011-10-03T16:00:00Z,29.5150,-94.5133,0.0,5.1,66.0,6.0,'11111222,11111222,11111222' 
TCOON,ioos:station:TCOON:518:1,2011-10-03T17:00:00Z,29.5150,-94.5133,0.0,4.1,88.0,6.1,'11111222,11111222,11111222' 
TCOON,ioos:station:TCOON:518:1,2011-10-03T18:00:00Z,29.5150,-94.5133,0.0,7.0,106.0,7.9,'11111222,11111222,11111222' 
TCOON,ioos:station:TCOON:518:1,2011-10-03T19:00:00Z,29.5150,-94.5133,0.0,7.1,109.0,8.3,'11111222,11111222,11111222' 
TCOON,ioos:station:TCOON:518:1,2011-10-03T20:00:00Z,29.5150,-94.5133,0.0,7.1,109.0,8.1,'11111222,11111222,11111222' 
TCOON,ioos:station:TCOON:518:1,2011-10-03T21:00:00Z,29.5150,-94.5133,0.0,6.9,116.0,8.7,'11111222,11111222,11111222' 
TCOON,ioos:station:TCOON:518:1,2011-10-03T22:00:00Z,29.5150,-94.5133,0.0,6.1,112.0,7.4,'11111222,11111222,11111222' 
TCOON,ioos:station:TCOON:518:1,2011-10-03T23:00:00Z,29.5150,-94.5133,0.0,6.2,106.0,7.1,'11111222,11111222,11111222' 
TCOON,ioos:station:TCOON:518:1,2011-10-04T00:00:00Z,29.5150,-94.5133,0.0,4.9,101.0,5.6,'11111222,11111222,11111222' 
TCOON,ioos:station:TCOON:518:1,2011-10-04T01:00:00Z,29.5150,-94.5133,0.0,4.9,104.0,5.9,'11111222,11111222,11111222' 
TCOON,ioos:station:TCOON:518:1,2011-10-04T02:00:00Z,29.5150,-94.5133,0.0,4.3,118.0,5.1,'11111222,11111222,11111222' 
TCOON,ioos:station:TCOON:518:1,2011-10-04T03:00:00Z,29.5150,-94.5133,0.0,4.1,109.0,4.8,'11111222,11111222,11111222' 
TCOON,ioos:station:TCOON:518:1,2011-10-04T04:00:00Z,29.5150,-94.5133,0.0,4.2,130.0,5.1,'11111222,11111222,11111222' 
TCOON,ioos:station:TCOON:518:1,2011-10-04T05:00:00Z,29.5150,-94.5133,0.0,3.7,121.0,5.9,'11111222,11111222,11111222' 
TCOON,ioos:station:TCOON:518:1,2011-10-04T06:00:00Z,29.5150,-94.5133,0.0,4.0,126.0,5.0,'11111222,11111222,11111222' 
TCOON,ioos:station:TCOON:518:1,2011-10-04T07:00:00Z,29.5150,-94.5133,0.0,3.0,51.0,3.6,'11111222,11111222,11111222' 
TCOON,ioos:station:TCOON:518:1,2011-10-04T08:00:00Z,29.5150,-94.5133,0.0,3.6,35.0,4.0,'11111222,11111222,11111222' 
TCOON,ioos:station:TCOON:518:1,2011-10-04T09:00:00Z,29.5150,-94.5133,0.0,5.1,42.0,5.7,'11111222,11111222,11111222' 
TCOON,ioos:station:TCOON:518:1,2011-10-04T10:00:00Z,29.5150,-94.5133,0.0,4.9,51.0,5.7,'11111222,11111222,11111222' 
TCOON,ioos:station:TCOON:518:1,2011-10-04T11:00:00Z,29.5150,-94.5133,0.0,5.3,39.0,6.5,'11111222,11111222,11111222' 
TCOON,ioos:station:TCOON:518:1,2011-10-04T12:00:00Z,29.5150,-94.5133,0.0,5.1,39.0,5.9,'11111222,11111222,11111222' 
TCOON,ioos:station:TCOON:518:1,2011-10-04T13:00:00Z,29.5150,-94.5133,0.0,6.0,39.0,6.4,'11111222,11111222,11111222' 
TCOON,ioos:station:TCOON:518:1,2011-10-04T14:00:00Z,29.5150,-94.5133,0.0,5.4,49.0,6.6,'11111222,11111222,11111222' 
TCOON,ioos:station:TCOON:518:1,2011-10-04T15:00:00Z,29.5150,-94.5133,0.0,4.5,44.0,5.1,'11111222,11111222,11111222' 
TCOON,ioos:station:TCOON:518:1,2011-10-04T16:00:00Z,29.5150,-94.5133,0.0,4.5,91.0,6.2,'11111222,11111222,11111222' 
TCOON,ioos:station:TCOON:518:1,2011-10-04T17:00:00Z,29.5150,-94.5133,0.0,5.1,94.0,6.2,'11111222,11111222,11111222' 
TCOON,ioos:station:TCOON:518:1,2011-10-04T18:00:00Z,29.5150,-94.5133,0.0,5.4,91.0,7.1,'11111222,11111222,11111222' 
TCOON,ioos:station:TCOON:518:1,2011-10-04T19:00:00Z,29.5150,-94.5133,0.0,6.2,96.0,7.1,'11111222,11111222,11111222' 
TCOON,ioos:station:TCOON:518:1,2011-10-04T20:00:00Z,29.5150,-94.5133,0.0,6.5,103.0,7.5,'11111222,11111222,11111222' 
TCOON,ioos:station:TCOON:518:1,2011-10-04T21:00:00Z,29.5150,-94.5133,0.0,6.7,102.0,7.7,'11111222,11111222,11111222' 
TCOON,ioos:station:TCOON:518:1,2011-10-04T22:00:00Z,29.5150,-94.5133,0.0,5.1,116.0,6.9,'11111222,11111222,11111222' 
TCOON,ioos:station:TCOON:518:1,2011-10-04T23:00:00Z,29.5150,-94.5133,0.0,5.1,117.0,5.9,'11111222,11111222,11111222' 
TCOON,ioos:station:TCOON:518:1,2011-10-05T00:00:00Z,29.5150,-94.5133,0.0,4.7,104.0,5.6,'11111222,11111222,11111222' 
TCOON,ioos:station:TCOON:518:1,2011-10-05T01:00:00Z,29.5150,-94.5133,0.0,3.6,114.0,4.2,'11111222,11111222,11111222' 
TCOON,ioos:station:TCOON:518:1,2011-10-05T02:00:00Z,29.5150,-94.5133,0.0,3.8,108.0,4.2,'11111222,11111222,11111222' 
TCOON,ioos:station:TCOON:518:1,2011-10-05T03:00:00Z,29.5150,-94.5133,0.0,5.3,112.0,6.3,'11111222,11111222,11111222' 
TCOON,ioos:station:TCOON:518:1,2011-10-05T04:00:00Z,29.5150,-94.5133,0.0,6.6,112.0,8.0,'11111222,11111222,11111222' 
TCOON,ioos:station:TCOON:518:1,2011-10-05T05:00:00Z,29.5150,-94.5133,0.0,6.5,118.0,8.6,'11111222,11111222,11111222' 
TCOON,ioos:station:TCOON:518:1,2011-10-05T06:00:00Z,29.5150,-94.5133,0.0,6.3,117.0,7.8,'11111222,11111222,11111222' 
TCOON,ioos:station:TCOON:518:1,2011-10-05T07:00:00Z,29.5150,-94.5133,0.0,7.2,121.0,9.3,'11111222,11111222,11111222' 
TCOON,ioos:station:TCOON:518:1,2011-10-05T08:00:00Z,29.5150,-94.5133,0.0,7.1,138.0,9.0,'11111222,11111222,11111222' 
TCOON,ioos:station:TCOON:518:1,2011-10-05T09:00:00Z,29.5150,-94.5133,0.0,6.7,131.0,7.6,'11111222,11111222,11111222' 
TCOON,ioos:station:TCOON:518:1,2011-10-05T10:00:00Z,29.5150,-94.5133,0.0,5.5,141.0,6.9,'11111222,11111222,11111222' 
TCOON,ioos:station:TCOON:518:1,2011-10-05T11:00:00Z,29.5150,-94.5133,0.0,4.8,124.0,5.7,'11111222,11111222,11111222' 
TCOON,ioos:station:TCOON:518:1,2011-10-05T12:00:00Z,29.5150,-94.5133,0.0,3.8,126.0,5.0,'11111222,11111222,11111222' 
TCOON,ioos:station:TCOON:518:1,2011-10-05T13:00:00Z,29.5150,-94.5133,0.0,4.2,30.0,5.9,'11111222,11111222,11111222' 
TCOON,ioos:station:TCOON:518:1,2011-10-05T14:00:00Z,29.5150,-94.5133,0.0,4.2,51.0,5.1,'11111222,11111222,11111222' 
TCOON,ioos:station:TCOON:518:1,2011-10-05T15:00:00Z,29.5150,-94.5133,0.0,4.6,93.0,6.0,'11111222,11111222,11111222' 
TCOON,ioos:station:TCOON:518:1,2011-10-05T16:00:00Z,29.5150,-94.5133,0.0,6.2,86.0,7.3,'11111222,11111222,11111222' 
TCOON,ioos:station:TCOON:518:1,2011-10-05T17:00:00Z,29.5150,-94.5133,0.0,5.9,86.0,7.8,'11111222,11111222,11111222' 
TCOON,ioos:station:TCOON:518:1,2011-10-05T18:00:00Z,29.5150,-94.5133,0.0,5.1,89.0,8.0,'11111222,11111222,11111222' 
TCOON,ioos:station:TCOON:518:1,2011-10-05T19:00:00Z,29.5150,-94.5133,0.0,5.9,94.0,7.9,'11111222,11111222,11111222' 
TCOON,ioos:station:TCOON:518:1,2011-10-05T20:00:00Z,29.5150,-94.5133,0.0,6.8,99.0,8.6,'11111222,11111222,11111222' 
TCOON,ioos:station:TCOON:518:1,2011-10-05T21:00:00Z,29.5150,-94.5133,0.0,7.0,106.0,8.5,'11111222,11111222,11111222' 
TCOON,ioos:station:TCOON:518:1,2011-10-05T22:00:00Z,29.5150,-94.5133,0.0,7.3,106.0,8.5,'11111222,11111222,11111222' 
TCOON,ioos:station:TCOON:518:1,2011-10-05T23:00:00Z,29.5150,-94.5133,0.0,6.8,115.0,7.8,'11111222,11111222,11111222' 
TCOON,ioos:station:TCOON:518:1,2011-10-06T00:00:00Z,29.5150,-94.5133,0.0,6.4,115.0,7.3,'11111222,11111222,11111222' 
TCOON,ioos:station:TCOON:518:1,2011-10-06T01:00:00Z,29.5150,-94.5133,0.0,6.3,119.0,7.5,'11111222,11111222,11111222' 
TCOON,ioos:station:TCOON:518:1,2011-10-06T02:00:00Z,29.5150,-94.5133,0.0,6.4,124.0,7.2,'11111222,11111222,11111222' 
TCOON,ioos:station:TCOON:518:1,2011-10-06T03:00:00Z,29.5150,-94.5133,0.0,7.6,125.0,8.3,'11111222,11111222,11111222' 
TCOON,ioos:station:TCOON:518:1,2011-10-06T04:00:00Z,29.5150,-94.5133,0.0,6.9,124.0,8.9,'11111222,11111222,11111222' 
TCOON,ioos:station:TCOON:518:1,2011-10-06T05:00:00Z,29.5150,-94.5133,0.0,8.2,129.0,9.5,'11111222,11111222,11111222' 
TCOON,ioos:station:TCOON:518:1,2011-10-06T06:00:00Z,29.5150,-94.5133,0.0,7.3,121.0,9.9,'11111222,11111222,11111222' 
TCOON,ioos:station:TCOON:518:1,2011-10-06T07:00:00Z,29.5150,-94.5133,0.0,8.6,121.0,10.2,'11111222,11111222,11111222' 
TCOON,ioos:station:TCOON:518:1,2011-10-06T08:00:00Z,29.5150,-94.5133,0.0,7.4,121.0,8.6,'11111222,11111222,11111222' 
TCOON,ioos:station:TCOON:518:1,2011-10-06T09:00:00Z,29.5150,-94.5133,0.0,7.3,114.0,8.5,'11111222,11111222,11111222' 
TCOON,ioos:station:TCOON:518:1,2011-10-06T10:00:00Z,29.5150,-94.5133,0.0,6.5,112.0,7.5,'11111222,11111222,11111222' 
TCOON,ioos:station:TCOON:518:1,2011-10-06T11:00:00Z,29.5150,-94.5133,0.0,6.6,110.0,7.8,'11111222,11111222,11111222' 
TCOON,ioos:station:TCOON:518:1,2011-10-06T12:00:00Z,29.5150,-94.5133,0.0,6.3,106.0,7.3,'11111222,11111222,11111222' 
TCOON,ioos:station:TCOON:518:1,2011-10-06T13:00:00Z,29.5150,-94.5133,0.0,6.2,95.0,7.1,'11111222,11111222,11111222' 
TCOON,ioos:station:TCOON:518:1,2011-10-06T14:00:00Z,29.5150,-94.5133,0.0,7.5,96.0,8.9,'11111222,11111222,11111222' 
TCOON,ioos:station:TCOON:518:1,2011-10-06T15:00:00Z,29.5150,-94.5133,0.0,7.3,95.0,9.3,'11111222,11111222,11111222' 
TCOON,ioos:station:TCOON:518:1,2011-10-06T16:00:00Z,29.5150,-94.5133,0.0,8.6,103.0,9.9,'11111222,11111222,11111222' 
TCOON,ioos:station:TCOON:518:1,2011-10-06T17:00:00Z,29.5150,-94.5133,0.0,9.3,101.0,10.9,'11111222,11111222,11111222' 
TCOON,ioos:station:TCOON:518:1,2011-10-06T18:00:00Z,29.5150,-94.5133,0.0,8.4,102.0,10.0,'11111222,11111222,11111222' 
TCOON,ioos:station:TCOON:518:1,2011-10-06T19:00:00Z,29.5150,-94.5133,0.0,9.6,105.0,11.0,'11111222,11111222,11111222' 
TCOON,ioos:station:TCOON:518:1,2011-10-06T20:00:00Z,29.5150,-94.5133,0.0,8.3,106.0,9.6,'11111222,11111222,11111222' 
TCOON,ioos:station:TCOON:518:1,2011-10-06T21:00:00Z,29.5150,-94.5133,0.0,9.2,112.0,10.7,'11111222,11111222,11111222' 
TCOON,ioos:station:TCOON:518:1,2011-10-06T22:00:00Z,29.5150,-94.5133,0.0,7.7,141.0,10.5,'11111222,11111222,11111222' 
TCOON,ioos:station:TCOON:518:1,2011-10-06T23:00:00Z,29.5150,-94.5133,0.0,7.7,115.0,9.2,'11111222,11111222,11111222' 
TCOON,ioos:station:TCOON:518:1,2011-10-07T00:00:00Z,29.5150,-94.5133,0.0,7.9,110.0,10.3,'11111222,11111222,11111222' 
TCOON,ioos:station:TCOON:518:1,2011-10-07T01:00:00Z,29.5150,-94.5133,0.0,9.5,117.0,11.5,'11111222,11111222,11111222' 
TCOON,ioos:station:TCOON:518:1,2011-10-07T02:00:00Z,29.5150,-94.5133,0.0,9.5,120.0,11.3,'11111222,11111222,11111222' 
TCOON,ioos:station:TCOON:518:1,2011-10-07T03:00:00Z,29.5150,-94.5133,0.0,9.3,121.0,10.9,'11111222,11111222,11111222' 
TCOON,ioos:station:TCOON:518:1,2011-10-07T04:00:00Z,29.5150,-94.5133,0.0,8.9,118.0,11.3,'11111222,11111222,11111222' 
TCOON,ioos:station:TCOON:518:1,2011-10-07T05:00:00Z,29.5150,-94.5133,0.0,9.1,120.0,10.6,'11111222,11111222,11111222' 
TCOON,ioos:station:TCOON:518:1,2011-10-07T06:00:00Z,29.5150,-94.5133,0.0,9.0,128.0,11.6,'11111222,11111222,11111222' 
TCOON,ioos:station:TCOON:518:1,2011-10-07T07:00:00Z,29.5150,-94.5133,0.0,8.2,124.0,9.4,'11111222,11111222,11111222' 
TCOON,ioos:station:TCOON:518:1,2011-10-07T08:00:00Z,29.5150,-94.5133,0.0,8.5,124.0,10.0,'11111222,11111222,11111222' 
TCOON,ioos:station:TCOON:518:1,2011-10-07T09:00:00Z,29.5150,-94.5133,0.0,7.5,120.0,9.2,'11111222,11111222,11111222' 
TCOON,ioos:station:TCOON:518:1,2011-10-07T10:00:00Z,29.5150,-94.5133,0.0,7.4,119.0,8.8,'11111222,11111222,11111222' 
TCOON,ioos:station:TCOON:518:1,2011-10-07T11:00:00Z,29.5150,-94.5133,0.0,7.9,122.0,9.0,'11111222,11111222,11111222' 
TCOON,ioos:station:TCOON:518:1,2011-10-07T12:00:00Z,29.5150,-94.5133,0.0,7.3,115.0,8.8,'11111222,11111222,11111222' 
TCOON,ioos:station:TCOON:518:1,2011-10-07T13:00:00Z,29.5150,-94.5133,0.0,6.2,111.0,6.8,'11111222,11111222,11111222' 
TCOON,ioos:station:TCOON:518:1,2011-10-07T14:00:00Z,29.5150,-94.5133,0.0,7.1,102.0,8.5,'11111222,11111222,11111222' 
TCOON,ioos:station:TCOON:518:1,2011-10-07T15:00:00Z,29.5150,-94.5133,0.0,7.5,103.0,8.5,'11111222,11111222,11111222' 
TCOON,ioos:station:TCOON:518:1,2011-10-07T16:00:00Z,29.5150,-94.5133,0.0,7.5,92.0,10.1,'11111222,11111222,11111222' 
TCOON,ioos:station:TCOON:518:1,2011-10-07T17:00:00Z,29.5150,-94.5133,0.0,6.9,95.0,9.1,'11111222,11111222,11111222' 
TCOON,ioos:station:TCOON:518:1,2011-10-07T18:00:00Z,29.5150,-94.5133,0.0,6.5,94.0,8.5,'11111222,11111222,11111222' 
TCOON,ioos:station:TCOON:518:1,2011-10-07T19:00:00Z,29.5150,-94.5133,0.0,7.7,90.0,,'1111122,1111122,1111122' 
TCOON,ioos:station:TCOON:518:1,2011-10-07T20:00:00Z,29.5150,-94.5133,0.0,8.7,100.0,,'1111122,1111122,1111122' 
TCOON,ioos:station:TCOON:518:1,2011-10-07T21:00:00Z,29.5150,-94.5133,0.0,8.2,100.0,,'1111122,1111122,1111122' 
TCOON,ioos:station:TCOON:518:1,2011-10-07T22:00:00Z,29.5150,-94.5133,0.0,10.3,100.0,,'1111122,1111122,1111122' 
TCOON,ioos:station:TCOON:518:1,2011-10-07T23:00:00Z,29.5150,-94.5133,0.0,9.8,110.0,,'1111122,1111122,1111122' 
TCOON,ioos:station:TCOON:518:1,2011-10-08T00:00:00Z,29.5150,-94.5133,0.0,8.7,110.0,,'1111122,1111122,1111122' 
TCOON,ioos:station:TCOON:518:1,2011-10-08T01:00:00Z,29.5150,-94.5133,0.0,7.2,110.0,,'1111122,1111122,1111122' 
TCOON,ioos:station:TCOON:518:1,2011-10-08T02:00:00Z,29.5150,-94.5133,0.0,8.7,120.0,,'1111122,1111122,1111122' 
TCOON,ioos:station:TCOON:518:1,2011-10-08T03:00:00Z,29.5150,-94.5133,0.0,9.3,120.0,,'1111122,1111122,1111122' 
TCOON,ioos:station:TCOON:518:1,2011-10-08T04:00:00Z,29.5150,-94.5133,0.0,8.7,120.0,,'1111122,1111122,1111122' 
TCOON,ioos:station:TCOON:518:1,2011-10-08T05:00:00Z,29.5150,-94.5133,0.0,9.3,120.0,,'1111122,1111122,1111122' 
TCOON,ioos:station:TCOON:518:1,2011-10-08T06:00:00Z,29.5150,-94.5133,0.0,10.3,110.0,,'1111122,1111122,1111122' 
TCOON,ioos:station:TCOON:518:1,2011-10-08T07:00:00Z,29.5150,-94.5133,0.0,9.3,110.0,,'1111122,1111122,1111122' 
TCOON,ioos:station:TCOON:518:1,2011-10-08T08:00:00Z,29.5150,-94.5133,0.0,10.3,110.0,,'1111122,1111122,1111122' 
TCOON,ioos:station:TCOON:518:1,2011-10-08T09:00:00Z,29.5150,-94.5133,0.0,9.8,110.0,,'1111122,1111122,1111122' 
TCOON,ioos:station:TCOON:518:1,2011-10-08T10:00:00Z,29.5150,-94.5133,0.0,10.8,110.0,,'1111122,1111122,1111122' 
TCOON,ioos:station:TCOON:518:1,2011-10-08T11:00:00Z,29.5150,-94.5133,0.0,8.7,110.0,,'1111122,1111122,1111122' 
TCOON,ioos:station:TCOON:518:1,2011-10-08T12:00:00Z,29.5150,-94.5133,0.0,8.2,110.0,,'1111122,1111122,1111122' 
TCOON,ioos:station:TCOON:518:1,2011-10-08T13:00:00Z,29.5150,-94.5133,0.0,8.7,120.0,,'1111122,1111122,1111122' 
TCOON,ioos:station:TCOON:518:1,2011-10-08T14:00:00Z,29.5150,-94.5133,0.0,10.3,110.0,,'1111122,1111122,1111122' 
TCOON,ioos:station:TCOON:518:1,2011-10-08T15:00:00Z,29.5150,-94.5133,0.0,7.2,100.0,,'1111122,1111122,1111122' 
TCOON,ioos:station:TCOON:518:1,2011-10-08T16:00:00Z,29.5150,-94.5133,0.0,9.8,100.0,,'1111122,1111122,1111122' 
TCOON,ioos:station:TCOON:518:1,2011-10-08T17:00:00Z,29.5150,-94.5133,0.0,8.2,100.0,,'1111122,1111122,1111122' 
TCOON,ioos:station:TCOON:518:1,2011-10-08T18:00:00Z,29.5150,-94.5133,0.0,9.8,100.0,,'1111122,1111122,1111122' 
TCOON,ioos:station:TCOON:518:1,2011-10-08T19:00:00Z,29.5150,-94.5133,0.0,9.3,110.0,,'1111122,1111122,1111122' 
TCOON,ioos:station:TCOON:518:1,2011-10-08T20:00:00Z,29.5150,-94.5133,0.0,9.8,100.0,,'1111122,1111122,1111122' 
TCOON,ioos:station:TCOON:518:1,2011-10-08T21:00:00Z,29.5150,-94.5133,0.0,10.3,100.0,,'1111122,1111122,1111122' 
TCOON,ioos:station:TCOON:518:1,2011-10-08T22:00:00Z,29.5150,-94.5133,0.0,9.8,100.0,,'1111122,1111122,1111122' 
TCOON,ioos:station:TCOON:518:1,2011-10-08T23:00:00Z,29.5150,-94.5133,0.0,11.8,100.0,,'1111122,1111122,1111122' 
TCOON,ioos:station:TCOON:518:1,2011-10-09T00:00:00Z,29.5150,-94.5133,0.0,9.8,110.0,,'1111122,1111122,1111122' 
TCOON,ioos:station:TCOON:518:1,2011-10-09T01:00:00Z,29.5150,-94.5133,0.0,9.8,110.0,,'1111122,1111122,1111122' 
TCOON,ioos:station:TCOON:518:1,2011-10-09T02:00:00Z,29.5150,-94.5133,0.0,10.3,110.0,,'1111122,1111122,1111122' 
TCOON,ioos:station:TCOON:518:1,2011-10-09T03:00:00Z,29.5150,-94.5133,0.0,11.3,110.0,,'1111122,1111122,1111122' 
TCOON,ioos:station:TCOON:518:1,2011-10-09T04:00:00Z,29.5150,-94.5133,0.0,10.3,100.0,,'1111122,1111122,1111122' 
TCOON,ioos:station:TCOON:518:1,2011-10-09T05:00:00Z,29.5150,-94.5133,0.0,11.8,110.0,,'1111122,1111122,1111122' 
TCOON,ioos:station:TCOON:518:1,2011-10-09T06:00:00Z,29.5150,-94.5133,0.0,10.8,100.0,,'1111122,1111122,1111122' 
TCOON,ioos:station:TCOON:518:1,2011-10-09T07:00:00Z,29.5150,-94.5133,0.0,10.3,100.0,,'1111122,1111122,1111122' 
TCOON,ioos:station:TCOON:518:1,2011-10-09T08:00:00Z,29.5150,-94.5133,0.0,9.8,100.0,,'1111122,1111122,1111122' 
TCOON,ioos:station:TCOON:518:1,2011-10-09T09:00:00Z,29.5150,-94.5133,0.0,8.7,100.0,,'1111122,1111122,1111122' 
TCOON,ioos:station:TCOON:518:1,2011-10-09T10:00:00Z,29.5150,-94.5133,0.0,7.2,100.0,,'1111122,1111122,1111122' 
TCOON,ioos:station:TCOON:518:1,2011-10-09T11:00:00Z,29.5150,-94.5133,0.0,7.7,90.0,,'1111122,1111122,1111122' 
TCOON,ioos:station:TCOON:518:1,2011-10-09T12:00:00Z,29.5150,-94.5133,0.0,9.8,80.0,,'1111122,1111122,1111122' 
TCOON,ioos:station:TCOON:518:1,2011-10-09T13:00:00Z,29.5150,-94.5133,0.0,10.8,100.0,,'1111122,1111122,1111122' 
TCOON,ioos:station:TCOON:518:1,2011-10-09T14:00:00Z,29.5150,-94.5133,0.0,10.3,110.0,,'1111122,1111122,1111122' 